Year,Month,Day,Hour,Minute,Value (Times are PST for temperature in C)
2006,04,25,00,00,14.60
2006,04,25,00,01,14.50
2006,04,25,00,02,14.40
2006,04,25,00,03,14.30
2006,04,25,00,04,14.30
2006,04,25,00,05,14.20
2006,04,25,00,06,14.20
2006,04,25,00,07,14.20
2006,04,25,00,08,14.10
2006,04,25,00,09,14.00
2006,04,25,00,10,14.00
2006,04,25,00,11,13.90
2006,04,25,00,12,13.80
2006,04,25,00,13,13.70
2006,04,25,00,14,13.70
2006,04,25,00,15,13.60
2006,04,25,00,16,13.50
2006,04,25,00,17,13.50
2006,04,25,00,18,13.40
2006,04,25,00,19,13.50
2006,04,25,00,20,13.50
2006,04,25,00,21,13.60
2006,04,25,00,22,13.70
2006,04,25,00,23,13.70
2006,04,25,00,24,13.80
2006,04,25,00,25,13.80
2006,04,25,00,26,13.90
2006,04,25,00,27,13.90
2006,04,25,00,28,13.90
2006,04,25,00,29,14.00
2006,04,25,00,30,14.00
2006,04,25,00,31,14.00
2006,04,25,00,32,14.00
2006,04,25,00,33,14.00
2006,04,25,00,34,14.00
2006,04,25,00,35,14.00
2006,04,25,00,36,14.00
2006,04,25,00,37,13.90
2006,04,25,00,38,13.90
2006,04,25,00,39,13.90
2006,04,25,00,40,13.90
2006,04,25,00,41,13.90
2006,04,25,00,42,14.00
2006,04,25,00,43,14.00
2006,04,25,00,44,14.10
2006,04,25,00,45,14.10
2006,04,25,00,46,14.00
2006,04,25,00,47,14.00
2006,04,25,00,48,14.00
2006,04,25,00,49,13.90
2006,04,25,00,50,13.90
2006,04,25,00,51,13.90
2006,04,25,00,52,13.80
2006,04,25,00,53,13.80
2006,04,25,00,54,13.70
2006,04,25,00,55,13.70
2006,04,25,00,56,13.70
2006,04,25,00,57,13.70
2006,04,25,00,58,13.60
2006,04,25,00,59,13.50
2006,04,25,01,00,13.30
2006,04,25,01,01,13.20
2006,04,25,01,02,13.10
2006,04,25,01,03,13.00
2006,04,25,01,04,12.90
2006,04,25,01,05,12.80
2006,04,25,01,06,12.80
2006,04,25,01,07,12.70
2006,04,25,01,08,12.60
2006,04,25,01,09,12.50
2006,04,25,01,10,12.40
2006,04,25,01,11,12.30
2006,04,25,01,12,12.30
2006,04,25,01,13,12.20
2006,04,25,01,14,12.10
2006,04,25,01,15,12.10
2006,04,25,01,16,12.00
2006,04,25,01,17,11.90
2006,04,25,01,18,11.90
2006,04,25,01,19,12.00
2006,04,25,01,20,12.10
2006,04,25,01,21,12.20
2006,04,25,01,22,12.30
2006,04,25,01,23,12.30
2006,04,25,01,24,12.30
2006,04,25,01,25,12.30
2006,04,25,01,26,12.30
2006,04,25,01,27,12.30
2006,04,25,01,28,12.30
2006,04,25,01,29,12.30
2006,04,25,01,30,12.30
2006,04,25,01,31,12.20
2006,04,25,01,32,12.10
2006,04,25,01,33,12.00
2006,04,25,01,34,12.00
2006,04,25,01,35,11.90
2006,04,25,01,36,11.90
2006,04,25,01,37,11.80
2006,04,25,01,38,11.80
2006,04,25,01,39,11.70
2006,04,25,01,40,11.60
2006,04,25,01,41,11.60
2006,04,25,01,42,11.60
2006,04,25,01,43,11.60
2006,04,25,01,44,11.50
2006,04,25,01,45,11.40
2006,04,25,01,46,11.40
2006,04,25,01,47,11.40
2006,04,25,01,48,11.40
2006,04,25,01,49,11.40
2006,04,25,01,50,11.30
2006,04,25,01,51,11.30
2006,04,25,01,52,11.20
2006,04,25,01,53,11.20
2006,04,25,01,54,11.10
2006,04,25,01,55,11.10
2006,04,25,01,56,11.10
2006,04,25,01,57,11.00
2006,04,25,01,58,10.90
2006,04,25,01,59,10.90
2006,04,25,02,00,10.90
2006,04,25,02,01,10.90
2006,04,25,02,02,10.90
2006,04,25,02,03,10.90
2006,04,25,02,04,10.80
2006,04,25,02,05,10.80
2006,04,25,02,06,11.00
2006,04,25,02,07,11.20
2006,04,25,02,08,11.30
2006,04,25,02,09,11.40
2006,04,25,02,10,11.60
2006,04,25,02,11,11.80
2006,04,25,02,12,12.00
2006,04,25,02,13,12.20
2006,04,25,02,14,12.40
2006,04,25,02,15,12.50
2006,04,25,02,16,12.60
2006,04,25,02,17,12.70
2006,04,25,02,18,12.70
2006,04,25,02,19,12.80
2006,04,25,02,20,12.80
2006,04,25,02,21,12.70
2006,04,25,02,22,12.70
2006,04,25,02,23,12.70
2006,04,25,02,24,12.60
2006,04,25,02,25,12.60
2006,04,25,02,26,12.50
2006,04,25,02,27,12.40
2006,04,25,02,28,12.30
2006,04,25,02,29,12.30
2006,04,25,02,30,12.30
2006,04,25,02,31,12.30
2006,04,25,02,32,12.40
2006,04,25,02,33,12.40
2006,04,25,02,34,12.50
2006,04,25,02,35,12.50
2006,04,25,02,36,12.60
2006,04,25,02,37,12.60
2006,04,25,02,38,12.70
2006,04,25,02,39,12.70
2006,04,25,02,40,12.80
2006,04,25,02,41,12.80
2006,04,25,02,42,12.80
2006,04,25,02,43,12.80
2006,04,25,02,44,12.90
2006,04,25,02,45,13.00
2006,04,25,02,46,13.00
2006,04,25,02,47,13.00
2006,04,25,02,48,13.00
2006,04,25,02,49,13.00
2006,04,25,02,50,13.00
2006,04,25,02,51,13.00
2006,04,25,02,52,13.00
2006,04,25,02,53,13.00
2006,04,25,02,54,12.80
2006,04,25,02,55,12.70
2006,04,25,02,56,12.60
2006,04,25,02,57,12.50
2006,04,25,02,58,12.30
2006,04,25,02,59,12.20
2006,04,25,03,00,12.10
2006,04,25,03,01,12.00
2006,04,25,03,02,11.80
2006,04,25,03,03,11.70
2006,04,25,03,04,11.60
2006,04,25,03,05,11.50
2006,04,25,03,06,11.40
2006,04,25,03,07,11.30
2006,04,25,03,08,11.20
2006,04,25,03,09,11.10
2006,04,25,03,10,11.00
2006,04,25,03,11,10.90
2006,04,25,03,12,10.80
2006,04,25,03,13,10.70
2006,04,25,03,14,10.60
2006,04,25,03,15,10.50
2006,04,25,03,16,10.40
2006,04,25,03,17,10.30
2006,04,25,03,18,10.20
2006,04,25,03,19,10.00
2006,04,25,03,20,9.90
2006,04,25,03,21,9.90
2006,04,25,03,22,9.90
2006,04,25,03,23,10.00
2006,04,25,03,24,10.10
2006,04,25,03,25,10.20
2006,04,25,03,26,10.40
2006,04,25,03,27,10.40
2006,04,25,03,28,10.40
2006,04,25,03,29,10.40
2006,04,25,03,30,10.40
2006,04,25,03,31,10.30
2006,04,25,03,32,10.30
2006,04,25,03,33,10.10
2006,04,25,03,34,10.00
2006,04,25,03,35,9.90
2006,04,25,03,36,9.80
2006,04,25,03,37,9.80
2006,04,25,03,38,9.70
2006,04,25,03,39,9.70
2006,04,25,03,40,9.70
2006,04,25,03,41,9.60
2006,04,25,03,42,9.60
2006,04,25,03,43,9.60
2006,04,25,03,44,9.50
2006,04,25,03,45,9.50
2006,04,25,03,46,9.50
2006,04,25,03,47,9.40
2006,04,25,03,48,9.30
2006,04,25,03,49,9.30
2006,04,25,03,50,9.20
2006,04,25,03,51,9.20
2006,04,25,03,52,9.20
2006,04,25,03,53,9.20
2006,04,25,03,54,9.20
2006,04,25,03,55,9.10
2006,04,25,03,56,9.10
2006,04,25,03,57,9.10
2006,04,25,03,58,9.10
2006,04,25,03,59,9.00
2006,04,25,04,00,9.00
2006,04,25,04,01,9.00
2006,04,25,04,02,9.00
2006,04,25,04,03,8.90
2006,04,25,04,04,8.90
2006,04,25,04,05,8.80
2006,04,25,04,06,8.80
2006,04,25,04,07,8.80
2006,04,25,04,08,8.70
2006,04,25,04,09,8.70
2006,04,25,04,10,8.70
2006,04,25,04,11,8.60
2006,04,25,04,12,8.60
2006,04,25,04,13,8.50
2006,04,25,04,14,8.40
2006,04,25,04,15,8.40
2006,04,25,04,16,8.40
2006,04,25,04,17,8.30
2006,04,25,04,18,8.20
2006,04,25,04,19,8.20
2006,04,25,04,20,8.20
2006,04,25,04,21,8.10
2006,04,25,04,22,8.10
2006,04,25,04,23,8.00
2006,04,25,04,24,8.00
2006,04,25,04,25,7.90
2006,04,25,04,26,7.90
2006,04,25,04,27,7.80
2006,04,25,04,28,7.80
2006,04,25,04,29,7.80
2006,04,25,04,30,7.70
2006,04,25,04,31,7.70
2006,04,25,04,32,7.70
2006,04,25,04,33,7.60
2006,04,25,04,34,7.60
2006,04,25,04,35,7.50
2006,04,25,04,36,7.50
2006,04,25,04,37,7.50
2006,04,25,04,38,7.40
2006,04,25,04,39,7.40
2006,04,25,04,40,7.40
2006,04,25,04,41,7.30
2006,04,25,04,42,7.30
2006,04,25,04,43,7.30
2006,04,25,04,44,7.30
2006,04,25,04,45,7.30
2006,04,25,04,46,7.20
2006,04,25,04,47,7.20
2006,04,25,04,48,7.20
2006,04,25,04,49,7.10
2006,04,25,04,50,7.10
2006,04,25,04,51,7.10
2006,04,25,04,52,7.10
2006,04,25,04,53,7.00
2006,04,25,04,54,7.00
2006,04,25,04,55,7.00
2006,04,25,04,56,7.00
2006,04,25,04,57,6.90
2006,04,25,04,58,6.90
2006,04,25,04,59,6.90
2006,04,25,05,00,6.90
2006,04,25,05,01,6.80
2006,04,25,05,02,6.80
2006,04,25,05,03,6.80
2006,04,25,05,04,6.80
2006,04,25,05,05,6.80
2006,04,25,05,06,6.80
2006,04,25,05,07,6.80
2006,04,25,05,08,6.80
2006,04,25,05,09,6.80
2006,04,25,05,10,6.70
2006,04,25,05,11,6.70
2006,04,25,05,12,6.70
2006,04,25,05,13,6.70
2006,04,25,05,14,6.60
2006,04,25,05,15,6.60
2006,04,25,05,16,6.60
2006,04,25,05,17,6.60
2006,04,25,05,18,6.60
2006,04,25,05,19,6.60
2006,04,25,05,20,6.60
2006,04,25,05,21,6.40
2006,04,25,05,22,6.40
2006,04,25,05,23,6.40
2006,04,25,05,24,6.40
2006,04,25,05,25,6.40
2006,04,25,05,26,6.40
2006,04,25,05,27,6.40
2006,04,25,05,28,6.40
2006,04,25,05,29,6.40
2006,04,25,05,30,6.40
2006,04,25,05,31,6.40
2006,04,25,05,32,6.40
2006,04,25,05,33,6.40
2006,04,25,05,34,6.40
2006,04,25,05,35,6.30
2006,04,25,05,36,6.30
2006,04,25,05,37,6.30
2006,04,25,05,38,6.30
2006,04,25,05,39,6.30
2006,04,25,05,40,6.30
2006,04,25,05,41,6.30
2006,04,25,05,42,6.30
2006,04,25,05,43,6.30
2006,04,25,05,44,6.30
2006,04,25,05,45,6.30
2006,04,25,05,46,6.30
2006,04,25,05,47,6.30
2006,04,25,05,48,6.40
2006,04,25,05,49,6.40
2006,04,25,05,50,6.40
2006,04,25,05,51,6.40
2006,04,25,05,52,6.40
2006,04,25,05,53,6.40
2006,04,25,05,54,6.40
2006,04,25,05,55,6.40
2006,04,25,05,56,6.50
2006,04,25,05,57,6.60
2006,04,25,05,58,6.60
2006,04,25,05,59,6.60
2006,04,25,06,00,6.70
2006,04,25,06,01,6.70
2006,04,25,06,02,6.80
2006,04,25,06,03,6.80
2006,04,25,06,04,6.80
2006,04,25,06,05,6.80
2006,04,25,06,06,6.80
2006,04,25,06,07,6.80
2006,04,25,06,08,6.80
2006,04,25,06,09,6.80
2006,04,25,06,10,6.80
2006,04,25,06,11,6.80
2006,04,25,06,12,6.80
2006,04,25,06,13,6.80
2006,04,25,06,14,6.70
2006,04,25,06,15,6.70
2006,04,25,06,16,6.70
2006,04,25,06,17,6.70
2006,04,25,06,18,6.60
2006,04,25,06,19,6.60
2006,04,25,06,20,6.60
2006,04,25,06,21,6.60
2006,04,25,06,22,6.60
2006,04,25,06,23,6.60
2006,04,25,06,24,6.60
2006,04,25,06,25,6.60
2006,04,25,06,26,6.60
2006,04,25,06,27,6.60
2006,04,25,06,28,6.60
2006,04,25,06,29,6.60
2006,04,25,06,30,6.60
2006,04,25,06,31,6.60
2006,04,25,06,32,6.60
2006,04,25,06,33,6.60
2006,04,25,06,34,6.70
2006,04,25,06,35,6.70
2006,04,25,06,36,6.70
2006,04,25,06,37,6.70
2006,04,25,06,38,6.70
2006,04,25,06,39,6.60
2006,04,25,06,40,6.60
2006,04,25,06,41,6.60
2006,04,25,06,42,6.70
2006,04,25,06,43,6.70
2006,04,25,06,44,6.70
2006,04,25,06,45,6.70
2006,04,25,06,46,6.70
2006,04,25,06,47,6.80
2006,04,25,06,48,6.90
2006,04,25,06,49,7.00
2006,04,25,06,50,7.20
2006,04,25,06,51,7.50
2006,04,25,06,52,7.70
2006,04,25,06,53,7.80
2006,04,25,06,54,8.00
2006,04,25,06,55,8.20
2006,04,25,06,56,8.40
2006,04,25,06,57,8.60
2006,04,25,06,58,8.70
2006,04,25,06,59,8.90
2006,04,25,07,00,9.00
2006,04,25,07,01,9.10
2006,04,25,07,02,9.20
2006,04,25,07,03,9.40
2006,04,25,07,04,9.40
2006,04,25,07,05,9.50
2006,04,25,07,06,9.60
2006,04,25,07,07,9.70
2006,04,25,07,08,9.70
2006,04,25,07,09,9.70
2006,04,25,07,10,9.80
2006,04,25,07,11,9.80
2006,04,25,07,12,9.80
2006,04,25,07,13,9.90
2006,04,25,07,14,10.00
2006,04,25,07,15,10.10
2006,04,25,07,16,10.20
2006,04,25,07,17,10.30
2006,04,25,07,18,10.40
2006,04,25,07,19,10.40
2006,04,25,07,20,10.50
2006,04,25,07,21,10.50
2006,04,25,07,22,10.40
2006,04,25,07,23,10.20
2006,04,25,07,24,10.00
2006,04,25,07,25,9.90
2006,04,25,07,26,9.70
2006,04,25,07,27,9.60
2006,04,25,07,28,9.60
2006,04,25,07,29,9.50
2006,04,25,07,30,9.50
2006,04,25,07,31,9.50
2006,04,25,07,32,9.50
2006,04,25,07,33,9.60
2006,04,25,07,34,9.70
2006,04,25,07,35,9.70
2006,04,25,07,36,9.80
2006,04,25,07,37,9.90
2006,04,25,07,38,10.10
2006,04,25,07,39,10.10
2006,04,25,07,40,10.10
2006,04,25,07,41,10.10
2006,04,25,07,42,10.20
2006,04,25,07,43,10.30
2006,04,25,07,44,10.30
2006,04,25,07,45,10.40
2006,04,25,07,46,10.40
2006,04,25,07,47,10.40
2006,04,25,07,48,10.40
2006,04,25,07,49,10.40
2006,04,25,07,50,10.40
2006,04,25,07,51,10.50
2006,04,25,07,52,10.60
2006,04,25,07,53,10.70
2006,04,25,07,54,10.80
2006,04,25,07,55,10.90
2006,04,25,07,56,10.90
2006,04,25,07,57,11.10
2006,04,25,07,58,11.20
2006,04,25,07,59,11.30
2006,04,25,08,00,11.40
2006,04,25,08,01,11.60
2006,04,25,08,02,11.70
2006,04,25,08,03,11.80
2006,04,25,08,04,11.90
2006,04,25,08,05,12.00
2006,04,25,08,06,12.10
2006,04,25,08,07,12.20
2006,04,25,08,08,12.20
2006,04,25,08,09,12.10
2006,04,25,08,10,12.10
2006,04,25,08,11,12.10
2006,04,25,08,12,12.10
2006,04,25,08,13,12.10
2006,04,25,08,14,12.10
2006,04,25,08,15,12.20
2006,04,25,08,16,12.30
2006,04,25,08,17,12.30
2006,04,25,08,18,12.30
2006,04,25,08,19,12.30
2006,04,25,08,20,12.30
2006,04,25,08,21,12.30
2006,04,25,08,22,12.40
2006,04,25,08,23,12.50
2006,04,25,08,24,12.50
2006,04,25,08,25,12.60
2006,04,25,08,26,12.60
2006,04,25,08,27,12.70
2006,04,25,08,28,12.70
2006,04,25,08,29,12.80
2006,04,25,08,30,12.90
2006,04,25,08,31,13.00
2006,04,25,08,32,13.10
2006,04,25,08,33,13.20
2006,04,25,08,34,13.30
2006,04,25,08,35,13.30
2006,04,25,08,36,13.30
2006,04,25,08,37,13.30
2006,04,25,08,38,13.30
2006,04,25,08,39,13.30
2006,04,25,08,40,13.30
2006,04,25,08,41,13.30
2006,04,25,08,42,13.30
2006,04,25,08,43,13.30
2006,04,25,08,44,13.30
2006,04,25,08,45,13.30
2006,04,25,08,46,13.30
2006,04,25,08,47,13.30
2006,04,25,08,48,13.30
2006,04,25,08,49,13.30
2006,04,25,08,50,13.30
2006,04,25,08,51,13.30
2006,04,25,08,52,13.30
2006,04,25,08,53,13.30
2006,04,25,08,54,13.30
2006,04,25,08,55,13.30
2006,04,25,08,56,13.30
2006,04,25,08,57,13.30
2006,04,25,08,58,13.30
2006,04,25,08,59,13.30
2006,04,25,09,00,13.30
2006,04,25,09,01,13.30
2006,04,25,09,02,13.40
2006,04,25,09,03,13.50
2006,04,25,09,04,13.50
2006,04,25,09,05,13.60
2006,04,25,09,06,13.70
2006,04,25,09,07,13.70
2006,04,25,09,08,13.70
2006,04,25,09,09,13.70
2006,04,25,09,10,13.70
2006,04,25,09,11,13.60
2006,04,25,09,12,13.60
2006,04,25,09,13,13.60
2006,04,25,09,14,13.70
2006,04,25,09,15,13.80
2006,04,25,09,16,13.90
2006,04,25,09,17,14.10
2006,04,25,09,18,14.20
2006,04,25,09,19,14.30
2006,04,25,09,20,14.30
2006,04,25,09,21,14.20
2006,04,25,09,22,14.20
2006,04,25,09,23,14.20
2006,04,25,09,24,14.20
2006,04,25,09,25,14.20
2006,04,25,09,26,14.30
2006,04,25,09,27,14.40
2006,04,25,09,28,14.50
2006,04,25,09,29,14.60
2006,04,25,09,30,14.70
2006,04,25,09,31,14.80
2006,04,25,09,32,14.80
2006,04,25,09,33,14.80
2006,04,25,09,34,14.80
2006,04,25,09,35,14.80
2006,04,25,09,36,14.80
2006,04,25,09,37,14.70
2006,04,25,09,38,14.70
2006,04,25,09,39,14.60
2006,04,25,09,40,14.60
2006,04,25,09,41,14.60
2006,04,25,09,42,14.60
2006,04,25,09,43,14.60
2006,04,25,09,44,14.60
2006,04,25,09,45,14.60
2006,04,25,09,46,14.50
2006,04,25,09,47,14.40
2006,04,25,09,48,14.30
2006,04,25,09,49,14.20
2006,04,25,09,50,14.20
2006,04,25,09,51,14.00
2006,04,25,09,52,14.00
2006,04,25,09,53,13.90
2006,04,25,09,54,13.90
2006,04,25,09,55,13.90
2006,04,25,09,56,13.90
2006,04,25,09,57,14.00
2006,04,25,09,58,14.20
2006,04,25,09,59,14.20
2006,04,25,10,00,14.30
2006,04,25,10,01,14.40
2006,04,25,10,02,14.60
2006,04,25,10,03,14.70
2006,04,25,10,04,14.90
2006,04,25,10,05,14.90
2006,04,25,10,06,14.90
2006,04,25,10,07,14.90
2006,04,25,10,08,14.80
2006,04,25,10,09,14.60
2006,04,25,10,10,14.50
2006,04,25,10,11,14.40
2006,04,25,10,12,14.40
2006,04,25,10,13,14.40
2006,04,25,10,14,14.40
2006,04,25,10,15,14.40
2006,04,25,10,16,14.60
2006,04,25,10,17,14.50
2006,04,25,10,18,14.50
2006,04,25,10,19,14.40
2006,04,25,10,20,14.30
2006,04,25,10,21,14.30
2006,04,25,10,22,14.30
2006,04,25,10,23,14.30
2006,04,25,10,24,14.20
2006,04,25,10,25,14.20
2006,04,25,10,26,14.30
2006,04,25,10,27,14.40
2006,04,25,10,28,14.40
2006,04,25,10,29,14.50
2006,04,25,10,30,14.60
2006,04,25,10,31,14.50
2006,04,25,10,32,14.50
2006,04,25,10,33,14.60
2006,04,25,10,34,14.70
2006,04,25,10,35,14.80
2006,04,25,10,36,14.80
2006,04,25,10,37,14.90
2006,04,25,10,38,15.00
2006,04,25,10,39,15.10
2006,04,25,10,40,15.20
2006,04,25,10,41,15.00
2006,04,25,10,42,15.00
2006,04,25,10,43,14.80
2006,04,25,10,44,14.80
2006,04,25,10,45,14.80
2006,04,25,10,46,14.90
2006,04,25,10,47,14.90
2006,04,25,10,48,14.90
2006,04,25,10,49,15.00
2006,04,25,10,50,15.00
2006,04,25,10,51,15.10
2006,04,25,10,52,15.10
2006,04,25,10,53,15.10
2006,04,25,10,54,15.10
2006,04,25,10,55,15.00
2006,04,25,10,56,15.00
2006,04,25,10,57,15.00
2006,04,25,10,58,15.00
2006,04,25,10,59,15.10
2006,04,25,11,00,15.10
2006,04,25,11,01,15.20
2006,04,25,11,02,15.30
2006,04,25,11,03,15.20
2006,04,25,11,04,15.10
2006,04,25,11,05,15.00
2006,04,25,11,06,15.00
2006,04,25,11,07,14.90
2006,04,25,11,08,14.80
2006,04,25,11,09,14.80
2006,04,25,11,10,14.90
2006,04,25,11,11,14.90
2006,04,25,11,12,14.90
2006,04,25,11,13,14.80
2006,04,25,11,14,14.80
2006,04,25,11,15,14.80
2006,04,25,11,16,14.80
2006,04,25,11,17,14.80
2006,04,25,11,18,14.70
2006,04,25,11,19,14.70
2006,04,25,11,20,14.70
2006,04,25,11,21,14.60
2006,04,25,11,22,14.80
2006,04,25,11,23,14.90
2006,04,25,11,24,14.90
2006,04,25,11,25,14.80
2006,04,25,11,26,14.80
2006,04,25,11,27,14.80
2006,04,25,11,28,14.80
2006,04,25,11,29,14.80
2006,04,25,11,30,14.70
2006,04,25,11,31,14.70
2006,04,25,11,32,14.70
2006,04,25,11,33,14.70
2006,04,25,11,34,14.70
2006,04,25,11,35,14.70
2006,04,25,11,36,14.60
2006,04,25,11,37,14.50
2006,04,25,11,38,14.50
2006,04,25,11,39,14.60
2006,04,25,11,40,14.70
2006,04,25,11,41,14.80
2006,04,25,11,42,15.00
2006,04,25,11,43,15.00
2006,04,25,11,44,15.10
2006,04,25,11,45,15.10
2006,04,25,11,46,15.10
2006,04,25,11,47,15.10
2006,04,25,11,48,15.00
2006,04,25,11,49,15.00
2006,04,25,11,50,15.00
2006,04,25,11,51,15.00
2006,04,25,11,52,15.10
2006,04,25,11,53,15.20
2006,04,25,11,54,15.20
2006,04,25,11,55,15.20
2006,04,25,11,56,15.20
2006,04,25,11,57,15.20
2006,04,25,11,58,15.20
2006,04,25,11,59,15.20
2006,04,25,12,00,15.20
2006,04,25,12,01,15.30
2006,04,25,12,02,15.40
2006,04,25,12,03,15.60
2006,04,25,12,04,15.80
2006,04,25,12,05,15.80
2006,04,25,12,06,15.80
2006,04,25,12,07,15.90
2006,04,25,12,08,15.90
2006,04,25,12,09,16.00
2006,04,25,12,10,16.00
2006,04,25,12,11,16.00
2006,04,25,12,12,15.90
2006,04,25,12,13,15.80
2006,04,25,12,14,15.90
2006,04,25,12,15,15.90
2006,04,25,12,16,15.80
2006,04,25,12,17,15.90
2006,04,25,12,18,16.10
2006,04,25,12,19,16.20
2006,04,25,12,20,16.30
2006,04,25,12,21,16.30
2006,04,25,12,22,16.20
2006,04,25,12,23,16.10
2006,04,25,12,24,16.20
2006,04,25,12,25,16.30
2006,04,25,12,26,16.40
2006,04,25,12,27,16.50
2006,04,25,12,28,16.60
2006,04,25,12,29,16.60
2006,04,25,12,30,16.50
2006,04,25,12,31,16.40
2006,04,25,12,32,16.40
2006,04,25,12,33,16.60
2006,04,25,12,34,16.40
2006,04,25,12,35,16.40
2006,04,25,12,36,16.30
2006,04,25,12,37,16.30
2006,04,25,12,38,16.30
2006,04,25,12,39,16.20
2006,04,25,12,40,16.20
2006,04,25,12,41,16.20
2006,04,25,12,42,16.30
2006,04,25,12,43,16.30
2006,04,25,12,44,16.40
2006,04,25,12,45,16.40
2006,04,25,12,46,16.40
2006,04,25,12,47,16.40
2006,04,25,12,48,16.40
2006,04,25,12,49,16.30
2006,04,25,12,50,16.20
2006,04,25,12,51,16.20
2006,04,25,12,52,16.30
2006,04,25,12,53,16.30
2006,04,25,12,54,16.30
2006,04,25,12,55,16.30
2006,04,25,12,56,16.50
2006,04,25,12,57,16.60
2006,04,25,12,58,16.60
2006,04,25,12,59,16.60
2006,04,25,13,00,16.60
2006,04,25,13,01,16.60
2006,04,25,13,02,16.60
2006,04,25,13,03,16.60
2006,04,25,13,04,16.70
2006,04,25,13,05,16.60
2006,04,25,13,06,16.50
2006,04,25,13,07,16.40
2006,04,25,13,08,16.60
2006,04,25,13,09,16.70
2006,04,25,13,10,16.70
2006,04,25,13,11,16.80
2006,04,25,13,12,16.70
2006,04,25,13,13,16.70
2006,04,25,13,14,16.80
2006,04,25,13,15,16.80
2006,04,25,13,16,16.90
2006,04,25,13,17,16.90
2006,04,25,13,18,16.90
2006,04,25,13,19,16.90
2006,04,25,13,20,16.80
2006,04,25,13,21,16.80
2006,04,25,13,22,16.90
2006,04,25,13,23,16.90
2006,04,25,13,24,17.00
2006,04,25,13,25,16.90
2006,04,25,13,26,16.90
2006,04,25,13,27,16.90
2006,04,25,13,28,16.90
2006,04,25,13,29,16.90
2006,04,25,13,30,17.00
2006,04,25,13,31,16.90
2006,04,25,13,32,16.90
2006,04,25,13,33,17.00
2006,04,25,13,34,17.00
2006,04,25,13,35,17.10
2006,04,25,13,36,17.20
2006,04,25,13,37,17.30
2006,04,25,13,38,17.30
2006,04,25,13,39,17.50
2006,04,25,13,40,17.60
2006,04,25,13,41,17.60
2006,04,25,13,42,17.60
2006,04,25,13,43,17.70
2006,04,25,13,44,17.70
2006,04,25,13,45,17.70
2006,04,25,13,46,17.60
2006,04,25,13,47,17.50
2006,04,25,13,48,17.50
2006,04,25,13,49,17.40
2006,04,25,13,50,17.40
2006,04,25,13,51,17.30
2006,04,25,13,52,17.30
2006,04,25,13,53,17.40
2006,04,25,13,54,17.60
2006,04,25,13,55,17.60
2006,04,25,13,56,17.50
2006,04,25,13,57,17.50
2006,04,25,13,58,17.50
2006,04,25,13,59,17.50
2006,04,25,14,00,17.60
2006,04,25,14,01,17.70
2006,04,25,14,02,17.70
2006,04,25,14,03,17.70
2006,04,25,14,04,17.80
2006,04,25,14,05,17.90
2006,04,25,14,06,17.80
2006,04,25,14,07,17.80
2006,04,25,14,08,17.90
2006,04,25,14,09,18.00
2006,04,25,14,10,18.10
2006,04,25,14,11,18.20
2006,04,25,14,12,18.30
2006,04,25,14,13,18.40
2006,04,25,14,14,18.40
2006,04,25,14,15,18.40
2006,04,25,14,16,18.40
2006,04,25,14,17,18.50
2006,04,25,14,18,18.70
2006,04,25,14,19,18.90
2006,04,25,14,20,19.10
2006,04,25,14,21,19.20
2006,04,25,14,22,19.40
2006,04,25,14,23,19.50
2006,04,25,14,24,19.50
2006,04,25,14,25,19.50
2006,04,25,14,26,19.40
2006,04,25,14,27,19.30
2006,04,25,14,28,19.30
2006,04,25,14,29,19.20
2006,04,25,14,30,19.10
2006,04,25,14,31,19.10
2006,04,25,14,32,19.10
2006,04,25,14,33,19.10
2006,04,25,14,34,19.20
2006,04,25,14,35,19.20
2006,04,25,14,36,19.20
2006,04,25,14,37,19.20
2006,04,25,14,38,19.20
2006,04,25,14,39,19.10
2006,04,25,14,40,19.10
2006,04,25,14,41,19.10
2006,04,25,14,42,19.00
2006,04,25,14,43,18.90
2006,04,25,14,44,18.90
2006,04,25,14,45,19.00
2006,04,25,14,46,19.10
2006,04,25,14,47,19.00
2006,04,25,14,48,19.00
2006,04,25,14,49,19.10
2006,04,25,14,50,19.10
2006,04,25,14,51,19.10
2006,04,25,14,52,19.10
2006,04,25,14,53,19.10
2006,04,25,14,54,19.10
2006,04,25,14,55,19.10
2006,04,25,14,56,19.20
2006,04,25,14,57,19.30
2006,04,25,14,58,19.50
2006,04,25,14,59,19.70
2006,04,25,15,00,19.70
2006,04,25,15,01,19.70
2006,04,25,15,02,19.70
2006,04,25,15,03,19.50
2006,04,25,15,04,19.40
2006,04,25,15,05,19.40
2006,04,25,15,06,19.40
2006,04,25,15,07,19.50
2006,04,25,15,08,19.40
2006,04,25,15,09,19.40
2006,04,25,15,10,19.50
2006,04,25,15,11,19.50
2006,04,25,15,12,19.50
2006,04,25,15,13,19.40
2006,04,25,15,14,19.40
2006,04,25,15,15,19.50
2006,04,25,15,16,19.50
2006,04,25,15,17,19.30
2006,04,25,15,18,19.30
2006,04,25,15,19,19.40
2006,04,25,15,20,19.50
2006,04,25,15,21,19.60
2006,04,25,15,22,19.60
2006,04,25,15,23,19.70
2006,04,25,15,24,19.70
2006,04,25,15,25,19.60
2006,04,25,15,26,19.50
2006,04,25,15,27,19.50
2006,04,25,15,28,19.50
2006,04,25,15,29,19.50
2006,04,25,15,30,19.50
2006,04,25,15,31,19.50
2006,04,25,15,32,19.60
2006,04,25,15,33,19.60
2006,04,25,15,34,19.60
2006,04,25,15,35,19.50
2006,04,25,15,36,19.30
2006,04,25,15,37,19.20
2006,04,25,15,38,19.20
2006,04,25,15,39,19.20
2006,04,25,15,40,19.20
2006,04,25,15,41,19.30
2006,04,25,15,42,19.30
2006,04,25,15,43,19.20
2006,04,25,15,44,19.30
2006,04,25,15,45,19.40
2006,04,25,15,46,19.40
2006,04,25,15,47,19.40
2006,04,25,15,48,19.30
2006,04,25,15,49,19.30
2006,04,25,15,50,19.40
2006,04,25,15,51,19.60
2006,04,25,15,52,19.60
2006,04,25,15,53,19.60
2006,04,25,15,54,19.60
2006,04,25,15,55,19.60
2006,04,25,15,56,19.60
2006,04,25,15,57,19.50
2006,04,25,15,58,19.50
2006,04,25,15,59,19.50
2006,04,25,16,00,19.40
2006,04,25,16,01,19.40
2006,04,25,16,02,19.50
2006,04,25,16,03,19.50
2006,04,25,16,04,19.40
2006,04,25,16,05,19.40
2006,04,25,16,06,19.30
2006,04,25,16,07,19.30
2006,04,25,16,08,19.20
2006,04,25,16,09,19.10
2006,04,25,16,10,19.10
2006,04,25,16,11,19.20
2006,04,25,16,12,19.40
2006,04,25,16,13,19.50
2006,04,25,16,14,19.40
2006,04,25,16,15,19.30
2006,04,25,16,16,19.40
2006,04,25,16,17,19.40
2006,04,25,16,18,19.30
2006,04,25,16,19,19.40
2006,04,25,16,20,19.40
2006,04,25,16,21,19.40
2006,04,25,16,22,19.50
2006,04,25,16,23,19.60
2006,04,25,16,24,19.60
2006,04,25,16,25,19.70
2006,04,25,16,26,19.70
2006,04,25,16,27,19.70
2006,04,25,16,28,19.60
2006,04,25,16,29,19.60
2006,04,25,16,30,19.50
2006,04,25,16,31,19.50
2006,04,25,16,32,19.60
2006,04,25,16,33,19.60
2006,04,25,16,34,19.60
2006,04,25,16,35,19.70
2006,04,25,16,36,19.80
2006,04,25,16,37,19.90
2006,04,25,16,38,19.90
2006,04,25,16,39,19.90
2006,04,25,16,40,20.10
2006,04,25,16,41,20.20
2006,04,25,16,42,20.10
2006,04,25,16,43,19.90
2006,04,25,16,44,19.90
2006,04,25,16,45,19.90
2006,04,25,16,46,19.80
2006,04,25,16,47,19.70
2006,04,25,16,48,19.50
2006,04,25,16,49,19.40
2006,04,25,16,50,19.30
2006,04,25,16,51,19.40
2006,04,25,16,52,19.40
2006,04,25,16,53,19.40
2006,04,25,16,54,19.20
2006,04,25,16,55,18.90
2006,04,25,16,56,18.80
2006,04,25,16,57,18.70
2006,04,25,16,58,18.60
2006,04,25,16,59,18.60
2006,04,25,17,00,18.70
2006,04,25,17,01,18.80
2006,04,25,17,02,18.90
2006,04,25,17,03,19.00
2006,04,25,17,04,19.10
2006,04,25,17,05,19.20
2006,04,25,17,06,19.20
2006,04,25,17,07,19.00
2006,04,25,17,08,18.80
2006,04,25,17,09,18.80
2006,04,25,17,10,18.70
2006,04,25,17,11,18.60
2006,04,25,17,12,18.60
2006,04,25,17,13,18.40
2006,04,25,17,14,18.30
2006,04,25,17,15,18.20
2006,04,25,17,16,18.20
2006,04,25,17,17,18.10
2006,04,25,17,18,17.90
2006,04,25,17,19,17.90
2006,04,25,17,20,17.80
2006,04,25,17,21,17.70
2006,04,25,17,22,17.60
2006,04,25,17,23,17.60
2006,04,25,17,24,17.50
2006,04,25,17,25,17.50
2006,04,25,17,26,17.50
2006,04,25,17,27,17.50
2006,04,25,17,28,17.40
2006,04,25,17,29,17.30